{"data":{"norad_id":65593,"epoch":"2026-09-20T22:00:03.000096Z","epoch_age_seconds":75932,"freshness":"FRESH","line1":"1 65593U 25207B   26263.91670139 -.00017711  00000+0 -54750-3 0  9991","line2":"2 65593  97.2856 326.4681 0002068  88.2837 267.2466 15.33446606  5746","mean_motion":15.33446606,"eccentricity":0.0002068,"inclination_deg":97.2856,"raan_deg":326.4681,"arg_perigee_deg":88.2837,"mean_anomaly_deg":267.2466,"bstar":-0.0005475,"rev_number":574,"period_min":93.906106307558,"perigee_km":464.12312408429,"apogee_km":466.95366822814,"semimajor_km":6843.6753961562,"source":"CELESTRAK","updated_at":"2026-09-21T09:00:35.652926Z"}}